Flag for United Arab Emirates Weather past 2 weeks in Dubai, Dubai, United Arab Emirates

Now
100 °F

Passing clouds.


Feels Like: 110 °F
Forecast: 92 / 102 °F
Wind: 16 mph from Northwest

Location: Dubai International Airport

Current Time: Aug 27, 2014 at 2:50:20 PM

Latest Report: Aug 27, 2014 at 2:00 PM


Visibility: N/A

Pressure: 29.59 "Hg

Humidity: 40%

Dew point: 72 °F

Location of DubaiLocation

Historic Weather in Dubai — Graph

°F

Dubai temperature yesterday

Maximum temperature yesterday: 100 °F (at 12:00 PM)
Minimum temperature yesterday: 88 °F (at 5:00 AM)
Average temperature yesterday: 93 °F

Past Weeks' High & Low Weather Summary

 TemperatureHumidityPressure
High115 °F (Aug 17, 2:00 PM)89% (Aug 22, 6:00 AM)29.77 "Hg (Aug 22, 6:00 AM)
Low88 °F (Aug 14, 6:00 AM)15% (Aug 17, 7:00 PM)29.39 "Hg (Aug 16, 5:00 PM)
Average97 °F50%29.57 "Hg
* Reported Aug 12 1:00 PM — Aug 27 1:00 PM, Dubai, Weather by CustomWeather, © 2014

Note: Actual official high and low records may vary slightly from our data, if they occured in-between our weather recording intervals... More about our weather records

Advertising

Dubai weather history for previous 24 hours

 ConditionsComfort  
Time TempWeatherWind HumidityBarometerVisibility
1:00 PM
Aug 27
102 °FPassing clouds.13 mph27%29.59 "HgN/A
12:00 PM104 °FPassing clouds.8 mph28%29.62 "HgN/A
11:00 AM102 °FPassing clouds.12 mph29%29.65 "HgN/A
10:00 AM99 °FPassing clouds.10 mph33%29.65 "HgN/A
9:00 AM95 °FPassing clouds.10 mph36%29.65 "HgN/A
8:00 AM93 °FPassing clouds.9 mph47%29.65 "HgN/A
7:00 AM88 °FClear.8 mph79%29.65 "Hg5 mi
6:00 AM88 °FClear.8 mph84%29.62 "Hg5 mi
5:00 AM90 °FClear.8 mph79%29.62 "Hg10 mi
4:00 AM90 °FPassing clouds.7 mph79%29.62 "HgN/A
3:00 AM90 °FPassing clouds.5 mph75%29.62 "HgN/A
2:00 AM91 °FPassing clouds.7 mph71%29.62 "HgN/A
1:00 AM91 °FPassing clouds.6 mph71%29.62 "HgN/A
12:00 AM91 °FPassing clouds.3 mph67%29.62 "HgN/A
11:00 PM
Aug 26
93 °FClear.6 mph59%29.62 "Hg10 mi
10:00 PM93 °FClear.2 mph59%29.62 "Hg10 mi
9:00 PM91 °FClear.3 mph71%29.62 "Hg10 mi
8:00 PM91 °FPassing clouds.8 mph71%29.62 "HgN/A
7:00 PM93 °FPassing clouds.7 mph59%29.59 "HgN/A
6:00 PM95 °FSunny.12 mph53%29.59 "Hg10 mi
5:00 PM97 °FPassing clouds.14 mph44%29.59 "HgN/A
4:00 PM97 °FClear.15 mph44%29.59 "Hg6 mi
3:00 PM99 °FClear.14 mph42%29.62 "Hg6 mi
2:00 PM99 °FClear.14 mph39%29.65 "Hg6 mi
Weather by CustomWeather, © 2014

See weather overviewHow to use our weather pages